Starlink 3681

operational
NORAD ID: 51968 Int'l Des: 2022-025 Owner: SPXS Country: US Constellation: starlink
LEOCIRCULARSTARLINK_TYPE

Starlink 3681について

説明を読み込み中...

リアルタイム位置

3D地球を読み込み中...

次回通過

高度履歴

Altitude vs Time

uPlot chart will show altitude changes over time

軌道要素

1 51968U 22025N 26034.42574735 .00000486 00000-0 51488-4 0 9990
2 51968 53.0568 180.7465 0001376 86.7010 273.4137 15.06397564215818
Epoch: Feb 3, 2026 • Age: 17 hours

現在のステータス

高度 562.8 km
速度 7.58 km/s
衛星直下点 -43.92°S, 54.89°W
打ち上げ日 Mar 9, 2022
運用期間 3.9 years
タイプ internet

技術仕様

分類 Payload
質量 297.00 kg
乾燥質量 275.00 kg
総質量 297.00 kg
長さ 0.20 m
直径 2.80 m
スパン 9.00 m
形状 Box + pan
製造者 SPXS
バスタイプ Starlink
フェーズステータス In Orbit
所有者/国 SPXS/US

大規模コンステレーション

Loading constellations...